Time,TemperatureF,DewpointF,PressureIn,WindDirection,WindDirectionDegrees,WindSpeedMPH,WindSpeedGustMPH,Humidity,HourlyPrecipIn,Conditions,Clouds,dailyrainin,SolarRadiationWatts/m^2,SoftwareType,DateUTC
2013-01-17 00:00:00,48.6,48.1,29.97,North,355,0.0,1.0,98,0.00,,,0.19,0,Wunderground v.1.15,2013-01-17 05:00:00,
2013-01-17 00:05:00,48.6,48.1,29.97,North,355,0.0,1.0,98,0.00,,,0.19,0,Wunderground v.1.15,2013-01-17 05:05:00,
2013-01-17 00:10:00,48.6,48.1,29.98,North,355,0.0,1.0,98,0.00,,,0.19,0,Wunderground v.1.15,2013-01-17 05:10:00,
2013-01-17 00:15:00,48.6,48.1,29.98,North,355,0.0,1.0,98,0.00,,,0.19,0,Wunderground v.1.15,2013-01-17 05:15:00,
2013-01-17 00:20:00,48.7,48.2,29.99,North,355,0.0,2.0,98,0.00,,,0.19,0,Wunderground v.1.15,2013-01-17 05:20:00,
2013-01-17 00:25:00,48.6,48.1,29.99,North,355,1.0,2.0,98,0.00,,,0.19,0,Wunderground v.1.15,2013-01-17 05:25:00,
2013-01-17 00:30:00,48.6,48.1,30.00,North,355,1.0,1.0,98,0.00,,,0.19,0,Wunderground v.1.15,2013-01-17 05:30:00,
2013-01-17 00:35:00,48.7,48.2,30.00,North,355,0.0,1.0,98,0.00,,,0.20,0,Wunderground v.1.15,2013-01-17 05:35:00,
2013-01-17 00:40:00,48.7,48.2,30.00,North,355,0.0,1.0,98,0.00,,,0.20,0,Wunderground v.1.15,2013-01-17 05:40:00,
2013-01-17 00:45:00,48.7,48.2,30.00,North,355,0.0,1.0,98,0.00,,,0.00,0,Wunderground v.1.15,2013-01-17 05:45:00,
2013-01-17 00:50:00,48.7,48.2,30.00,North,355,0.0,1.0,98,0.00,,,0.00,0,Wunderground v.1.15,2013-01-17 05:50:00,
2013-01-17 01:00:00,48.7,48.2,30.00,North,355,0.0,1.0,98,0.00,,,0.01,0,Wunderground v.1.15,2013-01-17 06:00:00,
2013-01-17 01:10:00,48.7,48.2,30.00,North,355,0.0,1.0,98,0.05,,,0.02,0,Wunderground v.1.15,2013-01-17 06:10:00,
2013-01-17 01:15:00,48.7,48.2,30.00,North,355,0.0,1.0,98,0.05,,,0.02,0,Wunderground v.1.15,2013-01-17 06:15:00,
2013-01-17 01:20:00,48.7,48.2,30.00,North,355,0.0,1.0,98,0.04,,,0.02,0,Wunderground v.1.15,2013-01-17 06:20:00,
2013-01-17 01:25:00,48.7,48.2,30.00,North,355,0.0,1.0,98,0.00,,,0.03,0,Wunderground v.1.15,2013-01-17 06:25:00,
2013-01-17 01:30:00,48.7,48.2,30.00,North,355,0.0,1.0,98,0.00,,,0.03,0,Wunderground v.1.15,2013-01-17 06:30:00,
2013-01-17 01:35:00,48.7,48.2,30.00,North,355,0.0,1.0,98,0.00,,,0.03,0,Wunderground v.1.15,2013-01-17 06:35:00,
2013-01-17 01:40:00,48.7,48.2,30.00,North,355,0.0,1.0,98,0.04,,,0.04,0,Wunderground v.1.15,2013-01-17 06:40:00,
2013-01-17 01:45:00,48.7,48.2,30.01,North,355,0.0,1.0,98,0.04,,,0.04,0,Wunderground v.1.15,2013-01-17 06:45:00,
2013-01-17 01:50:00,48.7,48.2,30.01,North,355,0.0,1.0,98,0.04,,,0.04,0,Wunderground v.1.15,2013-01-17 06:50:00,
2013-01-17 01:55:00,48.7,48.2,30.01,North,355,0.0,1.0,98,0.04,,,0.05,0,Wunderground v.1.15,2013-01-17 06:55:00,
2013-01-17 02:00:00,48.7,48.2,30.01,North,355,0.0,1.0,98,0.15,,,0.06,0,Wunderground v.1.15,2013-01-17 07:00:00,
2013-01-17 02:10:00,48.7,48.2,30.02,North,355,0.0,1.0,98,0.12,,,0.08,0,Wunderground v.1.15,2013-01-17 07:10:00,
2013-01-17 02:20:00,48.6,48.1,30.02,North,355,0.0,1.0,98,0.09,,,0.09,0,Wunderground v.1.15,2013-01-17 07:20:00,
2013-01-17 02:25:00,48.6,48.1,30.02,North,355,0.0,1.0,98,0.05,,,0.09,0,Wunderground v.1.15,2013-01-17 07:25:00,
2013-01-17 02:30:00,48.6,48.1,30.01,North,355,0.0,1.0,98,0.04,,,0.10,0,Wunderground v.1.15,2013-01-17 07:30:00,
2013-01-17 02:35:00,48.6,48.1,30.01,North,355,0.0,1.0,98,0.04,,,0.10,0,Wunderground v.1.15,2013-01-17 07:35:00,
2013-01-17 02:40:00,48.6,48.1,30.01,North,355,0.0,1.0,98,0.07,,,0.11,0,Wunderground v.1.15,2013-01-17 07:40:00,
2013-01-17 02:45:00,48.6,48.1,30.01,North,355,0.0,1.0,98,0.07,,,0.11,0,Wunderground v.1.15,2013-01-17 07:45:00,
2013-01-17 02:50:00,48.6,48.1,30.00,North,355,0.0,1.0,98,0.05,,,0.11,0,Wunderground v.1.15,2013-01-17 07:50:00,
2013-01-17 02:55:00,48.6,48.1,30.00,North,355,0.0,1.0,98,0.05,,,0.12,0,Wunderground v.1.15,2013-01-17 07:55:00,
2013-01-17 03:00:00,48.6,48.1,30.00,North,355,0.0,1.0,98,0.05,,,0.12,0,Wunderground v.1.15,2013-01-17 08:00:00,
2013-01-17 03:10:00,48.6,48.1,30.00,North,355,0.0,1.0,98,0.00,,,0.12,0,Wunderground v.1.15,2013-01-17 08:10:00,
2013-01-17 03:15:00,48.6,48.1,30.00,North,355,0.0,1.0,98,0.00,,,0.13,0,Wunderground v.1.15,2013-01-17 08:15:00,
2013-01-17 03:25:00,48.6,48.1,30.00,North,355,0.0,1.0,98,0.00,,,0.13,0,Wunderground v.1.15,2013-01-17 08:25:00,
2013-01-17 03:30:00,48.6,48.1,29.99,North,355,0.0,1.0,98,0.00,,,0.13,0,Wunderground v.1.15,2013-01-17 08:30:00,
2013-01-17 03:35:00,48.6,48.1,29.99,North,355,0.0,1.0,98,0.00,,,0.14,0,Wunderground v.1.15,2013-01-17 08:35:00,
2013-01-17 03:40:00,48.6,48.1,29.99,North,355,0.0,1.0,98,0.00,,,0.14,0,Wunderground v.1.15,2013-01-17 08:40:00,
2013-01-17 03:45:00,48.6,48.1,29.99,North,355,0.0,1.0,98,0.00,,,0.14,0,Wunderground v.1.15,2013-01-17 08:45:00,
2013-01-17 03:55:00,48.5,48.0,29.99,North,355,0.0,1.0,98,0.00,,,0.14,0,Wunderground v.1.15,2013-01-17 08:55:00,
2013-01-17 04:00:00,48.5,48.0,29.99,North,355,0.0,1.0,98,0.00,,,0.14,0,Wunderground v.1.15,2013-01-17 09:00:00,
2013-01-17 04:05:00,48.5,48.0,29.99,North,355,0.0,1.0,98,0.00,,,0.15,0,Wunderground v.1.15,2013-01-17 09:05:00,
2013-01-17 04:15:00,48.4,47.9,30.00,North,355,0.0,1.0,98,0.13,,,0.16,0,Wunderground v.1.15,2013-01-17 09:15:00,
2013-01-17 04:20:00,48.4,47.9,30.00,North,355,0.0,1.0,98,0.13,,,0.18,0,Wunderground v.1.15,2013-01-17 09:20:00,
2013-01-17 04:25:00,48.4,47.9,29.99,North,355,0.0,1.0,98,0.12,,,0.19,0,Wunderground v.1.15,2013-01-17 09:25:00,
2013-01-17 04:30:00,48.4,47.9,29.99,North,355,0.0,1.0,98,0.20,,,0.20,0,Wunderground v.1.15,2013-01-17 09:30:00,
2013-01-17 04:35:00,48.4,47.9,29.99,North,355,0.0,1.0,98,0.08,,,0.20,0,Wunderground v.1.15,2013-01-17 09:35:00,
2013-01-17 04:40:00,48.3,47.8,29.99,North,355,0.0,2.0,98,0.08,,,0.21,0,Wunderground v.1.15,2013-01-17 09:40:00,
2013-01-17 04:45:00,48.3,47.8,30.00,North,355,1.0,2.0,98,0.06,,,0.21,0,Wunderground v.1.15,2013-01-17 09:45:00,
2013-01-17 04:50:00,48.3,47.8,30.00,North,355,1.0,1.0,98,0.05,,,0.22,0,Wunderground v.1.15,2013-01-17 09:50:00,
2013-01-17 04:55:00,48.3,47.8,30.00,North,355,0.0,1.0,98,0.10,,,0.23,0,Wunderground v.1.15,2013-01-17 09:55:00,
2013-01-17 05:00:00,48.3,47.8,30.01,North,355,0.0,1.0,98,0.08,,,0.23,0,Wunderground v.1.15,2013-01-17 10:00:00,
2013-01-17 05:10:00,48.2,47.7,30.00,North,355,0.0,1.0,98,0.06,,,0.24,0,Wunderground v.1.15,2013-01-17 10:10:00,
2013-01-17 05:15:00,48.2,47.7,30.00,North,355,0.0,1.0,98,0.04,,,0.25,0,Wunderground v.1.15,2013-01-17 10:15:00,
2013-01-17 05:25:00,48.2,47.7,30.00,North,355,0.0,1.0,98,0.04,,,0.25,0,Wunderground v.1.15,2013-01-17 10:25:00,
2013-01-17 05:30:00,48.2,48.2,30.01,North,355,0.0,1.0,100,0.04,,,0.26,0,Wunderground v.1.15,2013-01-17 10:30:00,
2013-01-17 05:35:00,48.2,48.2,30.00,North,355,0.0,1.0,100,0.04,,,0.26,0,Wunderground v.1.15,2013-01-17 10:35:00,
2013-01-17 05:40:00,48.2,47.7,30.00,North,355,0.0,1.0,98,0.06,,,0.27,0,Wunderground v.1.15,2013-01-17 10:40:00,
2013-01-17 05:45:00,48.2,47.7,30.00,North,355,0.0,1.0,98,0.06,,,0.27,0,Wunderground v.1.15,2013-01-17 10:45:00,
2013-01-17 05:50:00,48.2,47.7,30.00,North,355,0.0,1.0,98,0.05,,,0.27,0,Wunderground v.1.15,2013-01-17 10:50:00,
2013-01-17 06:00:00,48.1,47.6,30.01,North,355,0.0,1.0,98,0.00,,,0.27,0,Wunderground v.1.15,2013-01-17 11:00:00,
2013-01-17 06:05:00,48.1,47.6,30.01,North,355,0.0,1.0,98,0.00,,,0.28,0,Wunderground v.1.15,2013-01-17 11:05:00,
2013-01-17 06:10:00,48.1,47.6,30.02,North,355,0.0,1.0,98,0.07,,,0.29,0,Wunderground v.1.15,2013-01-17 11:10:00,
2013-01-17 06:15:00,48.0,47.5,30.01,North,355,0.0,1.0,98,0.17,,,0.30,0,Wunderground v.1.15,2013-01-17 11:15:00,
2013-01-17 06:20:00,48.1,47.6,30.00,North,355,0.0,1.0,98,0.07,,,0.30,0,Wunderground v.1.15,2013-01-17 11:20:00,
2013-01-17 06:25:00,48.1,47.6,30.00,North,355,0.0,1.0,98,0.07,,,0.31,0,Wunderground v.1.15,2013-01-17 11:25:00,
2013-01-17 06:35:00,48.0,47.5,30.02,North,355,0.0,1.0,98,0.04,,,0.31,0,Wunderground v.1.15,2013-01-17 11:35:00,
2013-01-17 06:40:00,48.0,47.5,30.03,North,355,0.0,1.0,98,0.00,,,0.31,0,Wunderground v.1.15,2013-01-17 11:40:00,
2013-01-17 06:45:00,48.0,47.5,30.02,North,355,0.0,1.0,98,0.00,,,0.31,0,Wunderground v.1.15,2013-01-17 11:45:00,
2013-01-17 06:50:00,48.0,47.5,30.02,North,355,0.0,1.0,98,0.00,,,0.31,0,Wunderground v.1.15,2013-01-17 11:50:00,
2013-01-17 06:55:00,48.1,47.6,30.02,North,355,0.0,1.0,98,0.00,,,0.31,0,Wunderground v.1.15,2013-01-17 11:55:00,
2013-01-17 07:00:00,48.1,47.6,30.02,North,355,0.0,1.0,98,0.00,,,0.32,0,Wunderground v.1.15,2013-01-17 12:00:00,
2013-01-17 07:05:00,48.0,47.5,30.02,North,355,0.0,1.0,98,0.00,,,0.32,0,Wunderground v.1.15,2013-01-17 12:05:00,
2013-01-17 07:15:00,48.1,47.6,30.03,North,355,0.0,1.0,98,0.04,,,0.33,0,Wunderground v.1.15,2013-01-17 12:15:00,
2013-01-17 07:20:00,48.1,47.6,30.03,North,355,0.0,1.0,98,0.04,,,0.33,0,Wunderground v.1.15,2013-01-17 12:20:00,
2013-01-17 07:25:00,48.0,47.5,30.03,North,355,0.0,1.0,98,0.04,,,0.33,0,Wunderground v.1.15,2013-01-17 12:25:00,
2013-01-17 07:30:00,48.1,47.6,30.04,North,355,0.0,1.0,98,0.00,,,0.33,0,Wunderground v.1.15,2013-01-17 12:30:00,
2013-01-17 07:35:00,48.0,47.5,30.03,North,355,0.0,1.0,98,0.00,,,0.33,0,Wunderground v.1.15,2013-01-17 12:35:00,
2013-01-17 07:40:00,48.1,47.6,30.02,North,355,0.0,1.0,98,0.00,,,0.33,5,Wunderground v.1.15,2013-01-17 12:40:00,
2013-01-17 07:45:00,48.1,47.6,30.03,North,355,0.0,1.0,98,0.00,,,0.33,5,Wunderground v.1.15,2013-01-17 12:45:00,
2013-01-17 07:50:00,48.1,47.6,30.02,North,355,0.0,1.0,98,0.00,,,0.33,7,Wunderground v.1.15,2013-01-17 12:50:00,
2013-01-17 08:00:00,48.1,47.6,30.03,North,355,0.0,1.0,98,0.00,,,0.33,9,Wunderground v.1.15,2013-01-17 13:00:00,
2013-01-17 08:05:00,48.1,47.6,30.03,North,355,0.0,1.0,98,0.00,,,0.33,9,Wunderground v.1.15,2013-01-17 13:05:00,
2013-01-17 08:10:00,48.1,47.6,30.03,North,355,0.0,1.0,98,0.00,,,0.33,7,Wunderground v.1.15,2013-01-17 13:10:00,
2013-01-17 08:20:00,48.1,47.6,30.05,North,355,0.0,1.0,98,0.00,,,0.33,7,Wunderground v.1.15,2013-01-17 13:20:00,
2013-01-17 08:25:00,48.1,47.6,30.04,North,355,0.0,1.0,98,0.00,,,0.33,9,Wunderground v.1.15,2013-01-17 13:25:00,
2013-01-17 08:30:00,48.2,47.7,30.05,North,355,0.0,1.0,98,0.00,,,0.33,11,Wunderground v.1.15,2013-01-17 13:30:00,
2013-01-17 08:35:00,48.2,48.2,30.06,North,355,0.0,2.0,100,0.00,,,0.34,12,Wunderground v.1.15,2013-01-17 13:35:00,
2013-01-17 08:40:00,48.2,48.2,30.07,North,355,1.0,1.0,100,0.00,,,0.34,11,Wunderground v.1.15,2013-01-17 13:40:00,
2013-01-17 08:45:00,48.3,47.8,30.07,North,355,1.0,1.0,98,0.06,,,0.35,14,Wunderground v.1.15,2013-01-17 13:45:00,
2013-01-17 08:55:00,48.3,47.8,30.07,North,355,0.0,1.0,98,0.26,,,0.38,19,Wunderground v.1.15,2013-01-17 13:55:00,
2013-01-17 09:00:00,48.3,47.8,30.07,North,355,0.0,1.0,98,0.15,,,0.39,32,Wunderground v.1.15,2013-01-17 14:00:00,
2013-01-17 09:05:00,48.4,47.9,30.07,North,355,0.0,1.0,98,0.10,,,0.40,46,Wunderground v.1.15,2013-01-17 14:05:00,
2013-01-17 09:10:00,48.4,47.9,30.07,North,351,0.0,3.0,98,0.08,,,0.40,33,Wunderground v.1.15,2013-01-17 14:10:00,
2013-01-17 09:15:00,48.4,47.9,30.08,NNW,347,1.0,3.0,98,0.08,,,0.41,32,Wunderground v.1.15,2013-01-17 14:15:00,
2013-01-17 09:20:00,48.5,48.0,30.08,NNW,347,1.0,1.0,98,0.06,,,0.41,32,Wunderground v.1.15,2013-01-17 14:20:00,
2013-01-17 09:25:00,48.5,48.0,30.08,NNW,347,0.0,1.0,98,0.04,,,0.42,28,Wunderground v.1.15,2013-01-17 14:25:00,
2013-01-17 09:30:00,48.6,48.1,30.07,NNW,347,0.0,1.0,98,0.04,,,0.42,60,Wunderground v.1.15,2013-01-17 14:30:00,
2013-01-17 09:40:00,48.7,48.2,30.07,NNW,347,0.0,1.0,98,0.07,,,0.43,60,Wunderground v.1.15,2013-01-17 14:40:00,
2013-01-17 09:45:00,48.8,48.3,30.07,NNW,347,0.0,1.0,98,0.04,,,0.43,58,Wunderground v.1.15,2013-01-17 14:45:00,
2013-01-17 09:55:00,48.7,48.2,30.07,NNW,347,0.0,1.0,98,0.04,,,0.44,53,Wunderground v.1.15,2013-01-17 14:55:00,
2013-01-17 10:00:00,48.7,48.2,30.07,NNW,347,0.0,1.0,98,0.04,,,0.44,47,Wunderground v.1.15,2013-01-17 15:00:00,
2013-01-17 10:05:00,48.7,48.2,30.07,NNW,329,0.0,1.0,98,0.00,,,0.45,54,Wunderground v.1.15,2013-01-17 15:05:00,
2013-01-17 10:15:00,48.8,48.3,30.07,NNW,348,0.0,1.0,98,0.00,,,0.45,47,Wunderground v.1.15,2013-01-17 15:15:00,
2013-01-17 10:20:00,48.8,48.3,30.07,NNW,348,0.0,1.0,98,0.04,,,0.46,69,Wunderground v.1.15,2013-01-17 15:20:00,
2013-01-17 10:25:00,48.8,48.3,30.07,NNW,344,0.0,1.0,98,0.04,,,0.46,51,Wunderground v.1.15,2013-01-17 15:25:00,
2013-01-17 10:30:00,48.7,48.2,30.07,North,360,0.0,1.0,98,0.07,,,0.47,58,Wunderground v.1.15,2013-01-17 15:30:00,
2013-01-17 10:35:00,48.7,48.2,30.07,North,349,0.0,1.0,98,0.07,,,0.47,47,Wunderground v.1.15,2013-01-17 15:35:00,
2013-01-17 10:40:00,48.7,48.2,30.07,North,355,0.0,1.0,98,0.05,,,0.47,32,Wunderground v.1.15,2013-01-17 15:40:00,
2013-01-17 10:45:00,48.7,48.2,30.07,North,355,0.0,1.0,98,0.04,,,0.48,40,Wunderground v.1.15,2013-01-17 15:45:00,
2013-01-17 10:50:00,48.7,48.2,30.07,North,351,0.0,1.0,98,0.04,,,0.48,46,Wunderground v.1.15,2013-01-17 15:50:00,
2013-01-17 10:55:00,48.6,48.1,30.07,North,351,0.0,1.0,98,0.04,,,0.48,46,Wunderground v.1.15,2013-01-17 15:55:00,
2013-01-17 11:05:00,48.7,48.2,30.06,North,350,0.0,1.0,98,0.00,,,0.49,79,Wunderground v.1.15,2013-01-17 16:05:00,
2013-01-17 11:10:00,48.8,48.3,30.06,North,350,0.0,1.0,98,0.00,,,0.49,58,Wunderground v.1.15,2013-01-17 16:10:00,
2013-01-17 11:15:00,48.9,48.4,30.05,North,350,0.0,1.0,98,0.04,,,0.50,88,Wunderground v.1.15,2013-01-17 16:15:00,
2013-01-17 11:25:00,49.0,48.5,30.05,NNE,26,0.0,1.0,98,0.04,,,0.50,63,Wunderground v.1.15,2013-01-17 16:25:00,
2013-01-17 11:30:00,49.0,48.5,30.05,NNE,26,0.0,1.0,98,0.04,,,0.50,69,Wunderground v.1.15,2013-01-17 16:30:00,
2013-01-17 11:35:00,48.9,48.4,30.05,NE,36,0.0,1.0,98,0.00,,,0.50,60,Wunderground v.1.15,2013-01-17 16:35:00,
2013-01-17 11:40:00,48.9,48.4,30.04,NE,36,0.0,1.0,98,0.00,,,0.50,63,Wunderground v.1.15,2013-01-17 16:40:00,
2013-01-17 11:45:00,48.9,48.4,30.04,NE,34,0.0,1.0,98,0.00,,,0.51,79,Wunderground v.1.15,2013-01-17 16:45:00,
2013-01-17 11:55:00,49.1,48.6,30.03,NE,34,0.0,1.0,98,0.00,,,0.51,63,Wunderground v.1.15,2013-01-17 16:55:00,
2013-01-17 12:00:00,49.0,48.2,30.03,NE,34,0.0,1.0,97,0.00,,,0.51,51,Wunderground v.1.15,2013-01-17 17:00:00,
2013-01-17 12:05:00,48.9,48.1,30.03,NNW,342,0.0,1.0,97,0.00,,,0.51,54,Wunderground v.1.15,2013-01-17 17:05:00,
2013-01-17 12:10:00,48.9,48.1,30.02,NNW,332,0.0,1.0,97,0.00,,,0.51,42,Wunderground v.1.15,2013-01-17 17:10:00,
2013-01-17 12:15:00,48.8,48.0,30.02,NNW,346,0.0,1.0,97,0.00,,,0.51,49,Wunderground v.1.15,2013-01-17 17:15:00,
2013-01-17 12:25:00,48.8,48.0,30.01,NNW,346,0.0,1.0,97,0.00,,,0.51,56,Wunderground v.1.15,2013-01-17 17:25:00,
2013-01-17 12:30:00,48.8,48.0,30.00,NNW,346,0.0,1.0,97,0.00,,,0.51,58,Wunderground v.1.15,2013-01-17 17:30:00,
2013-01-17 12:35:00,48.9,48.1,29.99,NNW,346,0.0,1.0,97,0.00,,,0.52,58,Wunderground v.1.15,2013-01-17 17:35:00,
2013-01-17 12:40:00,48.9,48.1,29.99,WSW,247,0.0,1.0,97,0.00,,,0.52,60,Wunderground v.1.15,2013-01-17 17:40:00,
2013-01-17 12:45:00,48.9,48.1,29.99,WSW,247,0.0,1.0,97,0.00,,,0.52,72,Wunderground v.1.15,2013-01-17 17:45:00,
2013-01-17 12:50:00,48.8,48.0,29.99,WSW,247,0.0,1.0,97,0.00,,,0.52,51,Wunderground v.1.15,2013-01-17 17:50:00,
2013-01-17 12:55:00,48.8,48.0,29.99,WSW,247,0.0,1.0,97,0.00,,,0.52,79,Wunderground v.1.15,2013-01-17 17:55:00,
2013-01-17 13:05:00,48.9,48.1,29.99,WSW,247,0.0,1.0,97,0.00,,,0.52,49,Wunderground v.1.15,2013-01-17 18:05:00,
2013-01-17 13:10:00,48.8,48.0,29.99,NW,315,0.0,1.0,97,0.00,,,0.53,47,Wunderground v.1.15,2013-01-17 18:10:00,
2013-01-17 13:15:00,48.7,47.9,29.99,NW,315,0.0,1.0,97,0.00,,,0.53,39,Wunderground v.1.15,2013-01-17 18:15:00,
2013-01-17 13:25:00,48.7,47.9,29.99,NNW,336,0.0,1.0,97,0.05,,,0.54,35,Wunderground v.1.15,2013-01-17 18:25:00,
2013-01-17 13:30:00,48.6,47.8,30.00,NNW,336,0.0,1.0,97,0.06,,,0.55,25,Wunderground v.1.15,2013-01-17 18:30:00,
2013-01-17 13:35:00,48.5,47.7,30.00,NNW,336,0.0,1.0,97,0.06,,,0.55,19,Wunderground v.1.15,2013-01-17 18:35:00,
2013-01-17 13:40:00,48.4,47.6,30.00,SSW,213,0.0,1.0,97,0.06,,,0.56,21,Wunderground v.1.15,2013-01-17 18:40:00,
2013-01-17 13:45:00,48.1,47.0,29.99,ENE,73,0.0,1.0,96,0.06,,,0.56,23,Wunderground v.1.15,2013-01-17 18:45:00,
2013-01-17 13:50:00,47.8,46.7,29.99,NE,53,0.0,1.0,96,0.05,,,0.56,26,Wunderground v.1.15,2013-01-17 18:50:00,
2013-01-17 13:55:00,47.6,46.8,29.99,NE,53,0.0,1.0,97,0.04,,,0.56,28,Wunderground v.1.15,2013-01-17 18:55:00,
2013-01-17 14:00:00,47.5,46.4,29.99,NE,53,0.0,1.0,96,0.04,,,0.57,33,Wunderground v.1.15,2013-01-17 19:00:00,
2013-01-17 14:10:00,47.4,46.3,29.99,NE,53,0.0,1.0,96,0.13,,,0.59,14,Wunderground v.1.15,2013-01-17 19:10:00,
2013-01-17 14:15:00,47.3,46.2,29.98,ENE,57,0.0,1.0,96,0.06,,,0.59,26,Wunderground v.1.15,2013-01-17 19:15:00,
2013-01-17 14:20:00,47.3,46.5,29.99,SSW,212,0.0,1.0,97,0.06,,,0.60,21,Wunderground v.1.15,2013-01-17 19:20:00,
2013-01-17 14:25:00,47.1,46.3,29.98,NNE,16,0.0,1.0,97,0.06,,,0.60,25,Wunderground v.1.15,2013-01-17 19:25:00,
2013-01-17 14:30:00,47.1,46.3,29.99,ESE,119,0.0,1.0,97,0.04,,,0.60,12,Wunderground v.1.15,2013-01-17 19:30:00,
2013-01-17 14:35:00,47.0,46.2,29.99,ESE,117,0.0,1.0,97,0.00,,,0.61,11,Wunderground v.1.15,2013-01-17 19:35:00,
2013-01-17 14:45:00,46.8,45.7,29.98,NE,52,0.0,1.0,96,0.00,,,0.61,28,Wunderground v.1.15,2013-01-17 19:45:00,
2013-01-17 14:50:00,46.6,45.5,29.98,ENE,59,0.0,1.0,96,0.00,,,0.61,32,Wunderground v.1.15,2013-01-17 19:50:00,
2013-01-17 14:55:00,46.4,45.3,29.98,ENE,59,0.0,1.0,96,0.00,,,0.61,23,Wunderground v.1.15,2013-01-17 19:55:00,
2013-01-17 15:00:00,46.2,45.1,29.98,SSW,205,0.0,1.0,96,0.00,,,0.61,26,Wunderground v.1.15,2013-01-17 20:00:00,
2013-01-17 15:10:00,45.7,44.6,29.98,ENE,62,0.0,1.0,96,0.00,,,0.61,26,Wunderground v.1.15,2013-01-17 20:10:00,
2013-01-17 15:15:00,45.4,44.3,29.98,ESE,117,1.0,1.0,96,0.00,,,0.62,19,Wunderground v.1.15,2013-01-17 20:15:00,
2013-01-17 15:20:00,45.1,43.8,29.98,East,82,0.0,3.0,95,0.00,,,0.62,18,Wunderground v.1.15,2013-01-17 20:20:00,
2013-01-17 15:25:00,45.0,43.7,29.98,North,355,1.0,3.0,95,0.00,,,0.62,14,Wunderground v.1.15,2013-01-17 20:25:00,
2013-01-17 15:30:00,44.9,43.8,29.99,NNW,340,1.0,1.0,96,0.00,,,0.62,11,Wunderground v.1.15,2013-01-17 20:30:00,
2013-01-17 15:40:00,44.8,43.7,29.99,NNE,26,0.0,4.0,96,0.00,,,0.62,12,Wunderground v.1.15,2013-01-17 20:40:00,
2013-01-17 15:45:00,44.7,43.6,29.99,ENE,71,0.0,4.0,96,0.00,,,0.62,12,Wunderground v.1.15,2013-01-17 20:45:00,
2013-01-17 15:50:00,44.7,43.6,29.99,SW,214,0.0,1.0,96,0.00,,,0.62,11,Wunderground v.1.15,2013-01-17 20:50:00,
2013-01-17 15:55:00,44.6,43.5,29.99,North,360,0.0,1.0,96,0.00,,,0.62,11,Wunderground v.1.15,2013-01-17 20:55:00,
2013-01-17 16:00:00,44.5,43.4,29.99,NE,48,0.0,4.0,96,0.00,,,0.62,5,Wunderground v.1.15,2013-01-17 21:00:00,
2013-01-17 16:05:00,44.5,43.4,29.99,North,355,0.0,4.0,96,0.00,,,0.62,7,Wunderground v.1.15,2013-01-17 21:05:00,
2013-01-17 16:15:00,44.5,43.4,30.00,NE,35,0.0,1.0,96,0.00,,,0.62,0,Wunderground v.1.15,2013-01-17 21:15:00,
2013-01-17 16:20:00,44.4,43.3,30.00,ENE,60,0.0,1.0,96,0.00,,,0.62,0,Wunderground v.1.15,2013-01-17 21:20:00,
2013-01-17 16:25:00,44.2,43.1,30.01,NNE,29,1.0,1.0,96,0.00,,,0.62,0,Wunderground v.1.15,2013-01-17 21:25:00,
2013-01-17 16:30:00,44.0,42.7,30.02,ESE,111,1.0,1.0,95,0.00,,,0.62,0,Wunderground v.1.15,2013-01-17 21:30:00,
2013-01-17 16:35:00,43.5,42.2,30.02,East,87,1.0,1.0,95,0.00,,,0.62,0,Wunderground v.1.15,2013-01-17 21:35:00,
2013-01-17 16:40:00,43.1,41.5,30.02,NE,53,0.0,3.0,94,0.00,,,0.62,0,Wunderground v.1.15,2013-01-17 21:40:00,
2013-01-17 16:45:00,42.5,40.9,30.02,East,84,1.0,3.0,94,0.00,,,0.62,0,Wunderground v.1.15,2013-01-17 21:45:00,
2013-01-17 16:50:00,42.1,40.5,30.02,NE,42,1.0,1.0,94,0.00,,,0.62,0,Wunderground v.1.15,2013-01-17 21:50:00,
2013-01-17 16:55:00,41.9,40.3,30.01,ENE,73,1.0,1.0,94,0.00,,,0.62,0,Wunderground v.1.15,2013-01-17 21:55:00,
2013-01-17 17:05:00,41.5,40.2,30.01,NW,315,0.0,1.0,95,0.00,,,0.63,0,Wunderground v.1.15,2013-01-17 22:05:00,
2013-01-17 17:15:00,40.8,39.2,30.01,ENE,68,1.0,1.0,94,0.00,,,0.63,0,Wunderground v.1.15,2013-01-17 22:15:00,
2013-01-17 17:20:00,40.4,38.8,30.01,ENE,73,1.0,1.0,94,0.00,,,0.63,0,Wunderground v.1.15,2013-01-17 22:20:00,
2013-01-17 17:25:00,40.1,38.5,30.01,NE,37,1.0,1.0,94,0.00,,,0.63,0,Wunderground v.1.15,2013-01-17 22:25:00,
2013-01-17 17:30:00,39.8,38.2,30.01,North,5,0.0,1.0,94,0.00,,,0.63,0,Wunderground v.1.15,2013-01-17 22:30:00,
2013-01-17 17:35:00,39.7,38.1,30.02,SSE,155,0.0,1.0,94,0.00,,,0.63,0,Wunderground v.1.15,2013-01-17 22:35:00,
2013-01-17 17:40:00,39.6,38.3,30.03,NNE,27,1.0,1.0,95,0.00,,,0.63,0,Wunderground v.1.15,2013-01-17 22:40:00,
2013-01-17 17:45:00,39.5,38.2,30.03,NW,325,1.0,3.0,95,0.00,,,0.64,0,Wunderground v.1.15,2013-01-17 22:45:00,
2013-01-17 17:55:00,39.4,38.1,30.04,NNW,344,2.0,2.0,95,0.18,,,0.66,0,Wunderground v.1.15,2013-01-17 22:55:00,
2013-01-17 18:00:00,39.4,38.1,30.05,NE,34,2.0,2.0,95,0.31,,,0.68,0,Wunderground v.1.15,2013-01-17 23:00:00,
2013-01-17 18:05:00,39.4,38.1,30.05,North,349,1.0,2.0,95,0.15,,,0.70,0,Wunderground v.1.15,2013-01-17 23:05:00,
2013-01-17 18:15:00,39.3,38.0,30.04,NNE,19,1.0,2.0,95,0.15,,,0.72,0,Wunderground v.1.15,2013-01-17 23:15:00,
2013-01-17 18:20:00,39.3,38.3,30.05,NNW,338,1.0,1.0,96,0.09,,,0.72,0,Wunderground v.1.15,2013-01-17 23:20:00,
2013-01-17 18:25:00,39.2,38.2,30.05,NNW,338,1.0,1.0,96,0.06,,,0.73,0,Wunderground v.1.15,2013-01-17 23:25:00,
2013-01-17 18:30:00,39.3,38.3,30.05,North,360,2.0,2.0,96,0.13,,,0.74,0,Wunderground v.1.15,2013-01-17 23:30:00,
2013-01-17 18:35:00,39.3,38.3,30.06,ESE,123,2.0,2.0,96,0.15,,,0.75,0,Wunderground v.1.15,2013-01-17 23:35:00,
2013-01-17 18:45:00,39.2,38.2,30.06,NNE,17,1.0,6.0,96,0.36,,,0.80,0,Wunderground v.1.15,2013-01-17 23:45:00,
2013-01-17 18:50:00,39.0,38.0,30.06,East,82,3.0,3.0,96,0.38,,,0.83,0,Wunderground v.1.15,2013-01-17 23:50:00,
2013-01-17 18:55:00,38.6,37.3,30.04,NNW,348,4.0,5.0,95,0.35,,,0.86,0,Wunderground v.1.15,2013-01-17 23:55:00,
2013-01-17 19:00:00,37.9,36.6,30.02,NNW,346,4.0,9.0,95,0.20,,,0.88,0,Wunderground v.1.15,2013-01-18 00:00:00,
2013-01-17 19:05:00,37.3,36.0,30.04,East,98,6.0,9.0,95,0.17,,,0.89,0,Wunderground v.1.15,2013-01-18 00:05:00,
2013-01-17 19:15:00,36.6,35.3,30.01,NE,34,1.0,4.0,95,0.09,,,0.91,0,Wunderground v.1.15,2013-01-18 00:15:00,
2013-01-17 19:20:00,36.4,35.1,30.03,WNW,303,1.0,1.0,95,0.09,,,0.91,0,Wunderground v.1.15,2013-01-18 00:20:00,
2013-01-17 19:25:00,36.1,34.8,30.04,NNW,340,1.0,1.0,95,0.07,,,0.92,0,Wunderground v.1.15,2013-01-18 00:25:00,
2013-01-17 19:35:00,35.3,34.0,30.08,NNW,348,1.0,1.0,95,0.09,,,0.93,0,Wunderground v.1.15,2013-01-18 00:35:00,
2013-01-17 19:40:00,35.2,33.9,30.10,North,351,1.0,1.0,95,0.09,,,0.94,0,Wunderground v.1.15,2013-01-18 00:40:00,
2013-01-17 19:45:00,34.9,33.6,30.08,North,355,0.0,1.0,95,0.06,,,0.94,0,Wunderground v.1.15,2013-01-18 00:45:00,
2013-01-17 19:50:00,34.7,33.4,30.06,NNW,346,0.0,1.0,95,0.04,,,0.94,0,Wunderground v.1.15,2013-01-18 00:50:00,
2013-01-17 19:55:00,34.4,33.1,30.06,NNW,348,0.0,1.0,95,0.00,,,0.94,0,Wunderground v.1.15,2013-01-18 00:55:00,
2013-01-17 20:05:00,34.2,33.2,30.06,NNW,347,0.0,1.0,96,0.10,,,0.96,0,Wunderground v.1.15,2013-01-18 01:05:00,
2013-01-17 20:10:00,34.1,33.1,30.04,NNE,13,1.0,5.0,96,0.07,,,0.96,0,Wunderground v.1.15,2013-01-18 01:10:00,
2013-01-17 20:15:00,34.0,33.0,30.03,North,350,1.0,5.0,96,0.04,,,0.97,0,Wunderground v.1.15,2013-01-18 01:15:00,
2013-01-17 20:25:00,34.1,33.1,30.04,NNW,347,0.0,3.0,96,0.10,,,0.98,0,Wunderground v.1.15,2013-01-18 01:25:00,
2013-01-17 20:30:00,34.1,33.1,30.04,NNW,344,0.0,1.0,96,0.06,,,0.98,0,Wunderground v.1.15,2013-01-18 01:30:00,
2013-01-17 20:35:00,34.0,33.0,30.04,North,5,0.0,1.0,96,0.05,,,0.99,0,Wunderground v.1.15,2013-01-18 01:35:00,
2013-01-17 20:40:00,34.1,33.1,30.05,NE,40,0.0,1.0,96,0.05,,,0.99,0,Wunderground v.1.15,2013-01-18 01:40:00,
2013-01-17 20:45:00,34.2,33.4,30.05,NNW,344,0.0,1.0,97,0.06,,,1.00,0,Wunderground v.1.15,2013-01-18 01:45:00,
2013-01-17 20:50:00,34.3,33.5,30.05,NNW,345,0.0,1.0,97,0.11,,,1.01,0,Wunderground v.1.15,2013-01-18 01:50:00,
2013-01-17 21:00:00,34.1,33.3,30.07,NE,34,0.0,1.0,97,0.08,,,1.02,0,Wunderground v.1.15,2013-01-18 02:00:00,
2013-01-17 21:05:00,34.1,33.3,30.07,NNW,348,0.0,1.0,97,0.06,,,1.02,0,Wunderground v.1.15,2013-01-18 02:05:00,
2013-01-17 21:10:00,34.1,33.3,30.07,WNW,296,0.0,1.0,97,0.04,,,1.02,0,Wunderground v.1.15,2013-01-18 02:10:00,
2013-01-17 21:15:00,34.0,33.2,30.06,WNW,296,0.0,1.0,97,0.00,,,1.02,0,Wunderground v.1.15,2013-01-18 02:15:00,
2013-01-17 21:20:00,33.8,33.0,30.05,NNW,346,0.0,1.0,97,0.00,,,1.03,0,Wunderground v.1.15,2013-01-18 02:20:00,
2013-01-17 21:25:00,33.8,33.0,30.02,NNW,346,0.0,1.0,97,0.15,,,1.04,0,Wunderground v.1.15,2013-01-18 02:25:00,
2013-01-17 21:35:00,33.8,33.0,30.02,SSE,149,0.0,1.0,97,0.12,,,1.06,0,Wunderground v.1.15,2013-01-18 02:35:00,
2013-01-17 21:40:00,33.9,33.1,30.06,NNW,347,0.0,1.0,97,0.08,,,1.07,0,Wunderground v.1.15,2013-01-18 02:40:00,
2013-01-17 21:45:00,34.2,33.4,30.07,NW,324,1.0,3.0,97,0.08,,,1.07,0,Wunderground v.1.15,2013-01-18 02:45:00,
2013-01-17 21:50:00,34.2,33.4,30.06,NNW,346,1.0,1.0,97,0.06,,,1.07,0,Wunderground v.1.15,2013-01-18 02:50:00,
2013-01-17 21:55:00,34.0,33.2,30.07,NNW,340,0.0,1.0,97,0.04,,,1.07,0,Wunderground v.1.15,2013-01-18 02:55:00,
2013-01-17 22:05:00,33.7,32.9,30.05,North,355,0.0,1.0,97,0.00,,,1.07,0,Wunderground v.1.15,2013-01-18 03:05:00,
2013-01-17 22:10:00,33.6,32.8,30.04,North,9,0.0,1.0,97,0.00,,,1.07,0,Wunderground v.1.15,2013-01-18 03:10:00,
2013-01-17 22:15:00,33.6,32.8,30.04,NE,46,0.0,1.0,97,0.00,,,1.07,0,Wunderground v.1.15,2013-01-18 03:15:00,
2013-01-17 22:20:00,33.6,32.8,30.03,North,355,0.0,1.0,97,0.00,,,1.07,0,Wunderground v.1.15,2013-01-18 03:20:00,
2013-01-17 22:25:00,33.6,32.8,30.04,NNW,348,0.0,1.0,97,0.00,,,1.07,0,Wunderground v.1.15,2013-01-18 03:25:00,
2013-01-17 22:30:00,33.7,32.9,30.05,NNW,334,0.0,1.0,97,0.00,,,1.08,0,Wunderground v.1.15,2013-01-18 03:30:00,
2013-01-17 22:35:00,33.9,33.1,30.07,NNE,22,0.0,1.0,97,0.12,,,1.09,0,Wunderground v.1.15,2013-01-18 03:35:00,
2013-01-17 22:45:00,33.9,33.1,30.08,NNW,338,0.0,1.0,97,0.04,,,1.09,0,Wunderground v.1.15,2013-01-18 03:45:00,
2013-01-17 22:55:00,33.7,32.9,30.08,NE,56,0.0,1.0,97,0.00,,,1.10,0,Wunderground v.1.15,2013-01-18 03:55:00,
2013-01-17 23:00:00,33.4,32.6,30.06,NE,56,0.0,1.0,97,0.00,,,1.10,0,Wunderground v.1.15,2013-01-18 04:00:00,
2013-01-17 23:05:00,33.6,32.8,30.08,NE,56,0.0,1.0,97,0.05,,,1.11,0,Wunderground v.1.15,2013-01-18 04:05:00,
2013-01-17 23:10:00,34.1,33.3,30.09,NNE,20,0.0,1.0,97,0.08,,,1.11,0,Wunderground v.1.15,2013-01-18 04:10:00,
2013-01-17 23:20:00,33.7,32.9,30.07,NNE,20,0.0,1.0,97,0.06,,,1.12,0,Wunderground v.1.15,2013-01-18 04:20:00,
2013-01-17 23:25:00,33.5,32.7,30.07,NNE,20,0.0,1.0,97,0.04,,,1.12,0,Wunderground v.1.15,2013-01-18 04:25:00,
2013-01-17 23:30:00,33.7,32.9,30.08,NNW,338,0.0,1.0,97,0.00,,,1.13,0,Wunderground v.1.15,2013-01-18 04:30:00,
2013-01-17 23:35:00,33.7,32.9,30.08,North,350,0.0,1.0,97,0.00,,,1.13,0,Wunderground v.1.15,2013-01-18 04:35:00,
2013-01-17 23:40:00,33.6,32.8,30.08,North,350,0.0,1.0,97,0.05,,,1.14,0,Wunderground v.1.15,2013-01-18 04:40:00,
2013-01-17 23:45:00,33.8,33.0,30.09,NW,313,0.0,1.0,97,0.05,,,1.14,0,Wunderground v.1.15,2013-01-18 04:45:00,
2013-01-17 23:55:00,33.8,33.0,30.11,NW,313,0.0,1.0,97,0.04,,,1.15,0,Wunderground v.1.15,2013-01-18 04:55:00,